Weather Roundup
Issued by NWS Corpus Christi, TX

Home | Current Version | Previous Version | Text Only | Print | Product List | Glossary On
Versions: 1 2 3 4 5 6 7 8 9 10 11 12 13 14 15 16 17 18 19 20 21 22 23 24 25 26 27 28 29 30 31 32 33 34 35 36 37 38 39 40 41 42 43 44 45 46 47 48 49 50
000
ASUS44 KCRP 261410
HRRCRP

SOUTH TEXAS REGIONAL WEATHER ROUNDUP
NATIONAL WEATHER SERVICE CORPUS CHRISTI TX
900 AM CDT WED APR 26 2017


TXZ229>244-261500-
...CORPUS CHRISTI AREA OBSERVATIONS...

CITY           SKY/WX    TMP DP  RH WIND       PRES   REMARKS
CORPUS CHRISTI PTSUNNY   78  73  84 S18       29.50R HAZE
NAS CORPUS CHR PTSUNNY   81  73  76 S20G28    29.49R HAZE
ROCKPORT       CLOUDY    79  72  79 S9G21     29.51R HAZE
KINGSVILLE NAS PTSUNNY   79  74  84 S13       29.50S HAZE
ALICE          CLOUDY    78  71  79 SW13      29.49R HAZE
ORANGE GROVE   CLOUDY    78  73  84 SW16      29.52R HAZE
FALFURRIAS     PTSUNNY   78  72  81 S10       29.50S
$$

...VICTORIA AREA OBSERVATIONS...

CITY           SKY/WX    TMP DP  RH WIND       PRES   REMARKS
VICTORIA       CLOUDY    78  71  79 S16       29.51S HAZE
BEEVILLE       CLOUDY    77  77 100 SW8       29.52R
PLEASANTON     MOSUNNY   77  70  80 CALM      29.55S
SAN ANTONIO    CLOUDY    76  68  76 SW6       29.55S
$$

...LAREDO AREA OBSERVATIONS...

CITY           SKY/WX    TMP DP  RH WIND       PRES   REMARKS
LAREDO         CLOUDY    77  69  76 W10       29.56R
COTULLA        SUNNY     77  70  79 N6        29.55R
DEL RIO        SUNNY     74  47  38 W15       29.65R
MCALLEN        SUNNY     81  73  76 S7        29.52R HAZE
HEBBRONVILLE   SUNNY     75  70  85 W7        29.54R
$$

...OTHER TEXAS OBSERVATIONS...

CITY           SKY/WX    TMP DP  RH WIND       PRES   REMARKS
BROWNSVILLE    CLOUDY    82  75  79 S16G26    29.52R
HOUSTON        CLOUDY    78  69  73 S17G24    29.53S
COL. STATION   LGT RAIN  74  71  91 SW5       29.56S FOG
AUSTIN         MOSUNNY   79  69  71 S10       29.52F
WACO           MOSUNNY   75  70  84 S12       29.48S
FORT WORTH     CLOUDY    66  62  87 N16       29.49R
WICHITA FALLS  CLOUDY    53  45  74 N21       29.60R
LUBBOCK        MOSUNNY   48  37  65 N31G46    29.72R
EL PASO        MOSUNNY   62  20  19 NW16G22   29.88R
$$

...MARINE OBSERVATIONS...

STATION/POSITION TIME  SKY/WX   TEMP    WIND        PRES    VSBY  WAVE   SWELL
                                AIR SEA DIR/SP/G                  HT/PER HT/PER
                 (UTC)          (F)     (DEG/KT/KT) (MB)    (MI)  (FT/S) (FT/S)
PORT ARANSAS     1300            77 77  170/ 22/ 24  998.5R
BUOY 90 E PORT A 1350            77 76  140/ 21/ 25  999.3F         8/ 8   3/ 8
BUOY 45 SE BAFFI 1350            77     180/ 17/ 19  998.5R         8/ 8   3/17
BUOY 200 E PT IS 1350            79 78  150/ 19/ 23 1002.2R         7/ 7
BUOY 15 E GALVES 1350            76 75  170/ 14/ 16 1001.4R         6/ 8   5/ 8
$$




USA.gov is the U.S. government's official web portal to all federal, state and local government web resources and services.